This demonstration page uses our WeatherBlox Daily Observations layout. Learn more.

Left ArrowRight Arrow

Hourly Observations for October 30, 2020

Temp ( °F °C ) Dew Point ( °F °C ) Humidity (%) Winds ( mph kmh ) Pressure ( in mb ) Visibility ( mi km ) Precip ( " mm )
12:56 am 00:56 Clear 38 3.3 30 -1.1 73 73 SSW 7 11 30.12 1020 10 16 0.00 0.00
1:56 am 01:56 Clear 40 4.4 31 -0.6 70 70 WSW 8 13 30.12 1020 10 16 0.00 0.00
2:56 am 02:56 Clear 37 2.8 31 -0.6 79 79 NNW 5 7 30.12 1020 10 16 0.00 0.00
3:56 am 03:56 Clear 37 2.8 32 0 82 82 WNW 6 9 30.13 1020 10 16 0.00 0.00
4:56 am 04:56 Clear 38 3.3 33 0.6 83 83 NNW 8 13 30.13 1020 10 16 0.00 0.00
5:56 am 05:56 Clear 36 2.2 32 0 86 86 WNW 7 11 30.15 1021 10 16 0.00 0.00
6:56 am 06:56 Clear 35 1.7 31 -0.6 85 85 WNW 7 11 30.18 1022 10 16 0.00 0.00
7:56 am 07:56 Clear 36 2.2 32 0 86 86 W 7 11 30.20 1023 10 16 0.00 0.00
8:56 am 08:56 Sunny 37 2.8 32 0 82 82 W 3 6 30.21 1023 10 16 0.00 0.00
9:56 am 09:56 Sunny 46 7.8 36 2.2 68 68 NW 9 15 30.22 1023 10 16 0.00 0.00
10:56 am 10:56 Sunny 54 12.2 38 3.3 55 55 NNW 3 6 30.21 1023 10 16 0.00 0.00
11:56 am 11:56 Sunny 61 16.1 38 3.3 43 43 VRB 5 7 30.19 1022 10 16 0.00 0.00
12:56 pm 12:56 Sunny 64 17.8 36 2.2 35 35 NE 5 7 30.17 1022 10 16 0.00 0.00
1:56 pm 13:56 Sunny 66 18.9 36 2.2 33 33 SE 5 7 30.13 1020 10 16 0.00 0.00
2:56 pm 14:56 Sunny 67 19.4 36 2.2 32 32 VRB 7 11 30.09 1019 10 16 0.00 0.00
3:56 pm 15:56 Sunny 69 20.6 37 2.8 31 31 SE 13 20 30.06 1018 10 16 0.00 0.00
4:56 pm 16:56 Sunny 69 20.6 36 2.2 30 30 SSE 15 24 30.04 1017 10 16 0.00 0.00
5:56 pm 17:56 Sunny 66 18.9 35 1.7 32 32 SSE 12 19 30.04 1017 10 16 0.00 0.00
6:56 pm 18:56 Clear 57 13.9 36 2.2 45 45 SSE 9 15 30.04 1017 10 16 0.00 0.00
7:56 pm 19:56 Clear 51 10.6 34 1.1 52 52 SE 10 17 30.04 1017 10 16 0.00 0.00
8:56 pm 20:56 Clear 48 8.9 34 1.1 58 58 SSE 10 17 30.03 1017 10 16 0.00 0.00
9:56 pm 21:56 Clear 52 11.1 36 2.2 55 55 SSE 14 22 29.99 1016 10 16 0.00 0.00
10:56 pm 22:56 Clear 49 9.4 36 2.2 61 61 S 10 17 29.98 1015 10 16 0.00 0.00
11:56 pm 23:56 Clear 47 8.3 37 2.8 69 69 S 12 19 29.96 1014 10 16 0.00 0.00

Powered by AerisWeather